Terminal Aerodrome Forecast
Issued by NWS Bismarck, ND

Home | Current Version | Previous Version | Graphics & Text | Print | Product List | Glossary On
Versions: 1 2 3 4 5 6 7 8 9 10 11 12 13 14 15 16 17 18 19 20 21 22 23
000
FTUS43 KBIS 250300 AAA
TAFBIS
TAF AMD
KBIS 250309Z 2503/2524 23014KT P6SM SCT020 OVC040
     FM250700 27015KT P6SM OVC020=

USA.gov is the U.S. government's official web portal to all federal, state and local government web resources and services.